Location: Aranbee
(34.0885°N, 118.2342°W)
Time: 09:25:30
(UTC+00:00)

Courier 1B Rocket - Pass Details

Date: 27 November 2020
Orbit: 920 x 1202 km, 28.2° (Epoch: 27 January)

Event Time Altitude Azimuth Distance (km) Brightness Sun altitude
Rises 14:44:46 0° 249° (WSW) 4,091 7.8 0.5°
Reaches altitude 10° 14:47:43 10° 245° (WSW) 3,119 7.3 1.1°
Maximum altitude 14:55:12 52° 172° (S) 1,423 6.3 2.5°
Drops below altitude 10° 15:02:21 10° 98° (E) 2,985 9.1 3.8°
Sets 15:05:07 0° 94° (E) 3,904 9.5 4.3°
